Regional Weather Roundup
Issued by NWS

Home | Current Version | Previous Version | Graphics & Text | Print | Product List | Glossary On
Versions: 1 2 3 4 5 6 7 8 9 10 11 12 13 14 15 16 17 18 19 20 21 22 23 24 25 26 27 28 29 30 31 32 33 34 35 36 37 38 39 40 41 42 43 44 45 46 47 48 49 50
000
ASUS45 KSLC 190610
RWRUT

UTAH REGIONAL WEATHER ROUNDUP
NATIONAL WEATHER SERVICE SALT LAKE CITY UT
1100 PM MST THU DEC 18 2014

UTZ001>011-023>025-190700-

NORTHERN UTAH

CITY           SKY/WX    TMP DP  RH WIND       PRES   REMARKS
BRIGHAM CITY   PTCLDY    30  27  88 CALM      30.19F
HILL AFB       MOCLDY    32  28  86 E9        30.19R WCI  24
LOGAN          CLEAR     29  24  82 E5        30.19R WCI  24
OGDEN          MOCLDY    32  28  85 S7        30.19R WCI  26
PROVO AIRPORT  CLEAR     28  27  93 S5        30.22R WCI  23
SALT LAKE CITY PTCLDY    33  28  81 SE7       30.20R WCI  27
VERNAL         CLOUDY    27  23  85 CALM      30.23S
WENDOVER       CLEAR     25  19  80 CALM      30.18R
HEBER CITY     MOCLDY    27  25  93 CALM      30.20R
WEST JORDAN    PTCLDY    30  28  93 SW7       30.20R WCI  23

$$

UTZ012>022-026-027-190700-

SOUTHERN/CENTRAL UTAH

CITY           SKY/WX    TMP DP  RH WIND       PRES   REMARKS
BLANDING       PTCLDY    26  24  93 N6        30.26R WCI  19
BRYCE CANYON   CLEAR     12   9  87 W8        30.20R WCI   0
CEDAR CITY     CLEAR     29  21  72 SE6       30.20R WCI  23
DELTA          PTCLDY    29  25  86 NE5       30.21R WCI  24
MILFORD        CLEAR     27  23  85 SW3       30.20R
MOAB/CYNLANDS  CLEAR     30  29  96 CALM      30.20R
PRICE          CLEAR     24  19  81 N5        30.18S WCI  18
ST GEORGE      CLEAR     39  30  70 CALM      30.25R
KANAB          CLEAR     30  30 100 CALM      30.27R

$$

REGIONAL REPORTS     COLORADO/ARIZONA

CITY           SKY/WX    TMP DP  RH WIND       PRES   REMARKS
CRAIG, CO      HAZE      23  18  81 CALM      30.20S VSB 3/4
GRAND JUNCTION CLOUDY    31  30  96 NE3       30.20R
RIFLE          CLOUDY    31  29  92 SE6       30.20R WCI  25
MONTROSE       CLOUDY    32  31  96 SE5       30.21S WCI  27
CORTEZ         CLEAR     24  22  91 NE6       30.19R WCI  17
PAGE, AZ       CLEAR     39  30  70 S6        30.20R WCI  35
GRAND CANYON   CLEAR     22  19  89 CALM      30.22S
KINGMAN        CLEAR     35  32  88 SE8       30.22S WCI  29
FLAGSTAFF      CLEAR     18  14  84 CALM      30.21R

$$

REGIONAL REPORTS    NEVADA/IDAHO/WYOMING

CITY           SKY/WX    TMP DP  RH WIND       PRES   REMARKS
LAS VEGAS, NV  PTCLDY    47  37  68 SW7       30.19R
ELY            CLEAR     20  17  88 S10       30.18S WCI   9
ELKO           PTCLDY    25  22  88 CALM      30.14S
POCATELLO, ID  PTCLDY    35  28  75 CALM      30.13S
BURLEY         CLOUDY    38  27  64 SW12      30.12R WCI  30
EVANSTON, WY   CLEAR     20  19  96 SW8       30.15R WCI  10
ROCK SPRINGS   PTCLDY    22  17  81 W14       30.13S WCI   9
KEMMERER       PTCLDY    23  21  93 W10       30.13R WCI  12

$$


USA.gov is the U.S. government's official web portal to all federal, state and local government web resources and services.